Rotterdam, Netherlands

2:54 PM CET on February 25, 2017 (GMT +0100)
Rotterdam

Weather History for EHRD - December, 2013

Change the Weather History Date:

Sunday, December 15, 2013

  Actual Average Record
Temperature  
Mean Temperature 46 °F -  
Max Temperature 48 °F 42 °F 53 °F (1998)
Min Temperature 43 °F 34 °F 21 °F (2010)
Degree Days  
Heating Degree Days 20    
Moisture  
Dew Point 42 °F    
Average Humidity 84    
Maximum Humidity 93    
Minimum Humidity 69    
Precipitation  
Precipitation 0.00 in - - ()
Sea Level Pressure  
Sea Level Pressure 30.20 in    
Wind  
Wind Speed 17 mph ()    
Max Wind Speed 24 mph    
Max Gust Speed 36 mph    
Visibility 7.0 miles    
Events Rain    
Averages and records for this station are not official NWS values.
T = Trace of Precipitation, MM = Missing Value Source: Averaged Metar Reports

Daily Weather History Graph

Daily Weather History Graph

Search for Another Location

Airport or City:

Trip Planner

Search our weather history database for the weather conditions in past years. The results will help you decide how hot, cold, wet, or windy it might be!

Date:

Astronomy

Dec. 15, 2013 Rise Set
Actual Time 8:43 AM CET 4:31 PM CET
Civil Twilight 8:02 AM CET 5:11 PM CET
Nautical Twilight 7:19 AM CET 5:55 PM CET
Astronomical Twilight 6:38 AM CET 6:36 PM CET
Moon 3:33 PM CET (12/15) 6:35 AM CET (12/15)
Length of Visible Light 9h 08m
Length of Day
7h 47m
Waxing Gibbous, 97% of the Moon is Illuminated
Dec 15
Waxing Gibbous
Dec 17
Full
Dec 25
Last Quarter
Jan 1
New
Jan 8
First Quarter

Hourly Weather History & Observations

Time (CET) Temp. Windchill Dew Point Humidity Pressure Visibility Wind Dir Wind Speed Gust Speed Precip Events Conditions
12:25 AM 44.6 °F 36.4 °F 39.2 °F 81% 30.18 in 6.2 mi South 20.7 mph - N/A   Unknown
12:55 AM 44.6 °F 36.6 °F 39.2 °F 81% 30.18 in 6.2 mi South 19.6 mph 33.4 mph N/A   Unknown
1:00 AM 45 °F - 38 °F 70% 30.20 in 12 mi SSW 20.1 mph - -   Partly Cloudy
1:25 AM 44.6 °F 36.1 °F 37.4 °F 76% 30.18 in 6.2 mi SSW 21.9 mph 33.4 mph N/A   Unknown
1:55 AM 44.6 °F 36.4 °F 37.4 °F 76% 30.18 in 6.2 mi SSW 20.7 mph - N/A   Unknown
2:25 AM 44.6 °F 36.9 °F 37.4 °F 76% 30.18 in 6.2 mi SSW 18.4 mph - N/A   Partly Cloudy
2:55 AM 44.6 °F 36.1 °F 39.2 °F 81% 30.18 in 6.2 mi SSW 21.9 mph - N/A   Drizzle
3:25 AM 44.6 °F 36.6 °F 39.2 °F 81% 30.15 in 6.2 mi SSW 19.6 mph 31.1 mph N/A Rain Light Drizzle
3:55 AM 44.6 °F 36.4 °F 39.2 °F 81% 30.15 in 6.2 mi SSW 20.7 mph - N/A   Overcast
4:00 AM 45 °F - 39 °F 73% 30.18 in 7 mi SSW 20.1 mph - - Rain Light Rain
4:25 AM 44.6 °F 36.1 °F 39.2 °F 81% 30.15 in 3.7 mi SSW 21.9 mph - N/A Rain Light Rain
4:55 AM 44.6 °F 35.7 °F 41.0 °F 87% 30.15 in 3.1 mi SSW 24.2 mph 35.7 mph N/A Rain Light Rain
5:25 AM 44.6 °F 35.9 °F 41.0 °F 87% 30.15 in 6.2 mi SSW 23.0 mph - N/A   Overcast
5:55 AM 44.6 °F 36.6 °F 41.0 °F 87% 30.15 in 6.2 mi SSW 19.6 mph - N/A   Overcast
6:25 AM 46.4 °F 38.3 °F 41.0 °F 81% 30.18 in 6.2 mi SW 23.0 mph 34.5 mph N/A   Overcast
6:55 AM 46.4 °F 38.3 °F 42.8 °F 87% 30.18 in 6.2 mi SW 23.0 mph - N/A   Overcast
7:00 AM 46 °F - 42 °F 82% 30.20 in 14 mi SW 20.1 mph - -   Partly Cloudy
7:25 AM 46.4 °F 38.5 °F 42.8 °F 87% 30.21 in 6.2 mi SW 21.9 mph 34.5 mph N/A   Overcast
7:55 AM 46.4 °F 38.7 °F 42.8 °F 87% 30.21 in 6.2 mi SW 20.7 mph - N/A   Overcast
8:25 AM 46.4 °F 39.5 °F 42.8 °F 87% 30.21 in 6.2 mi SSW 17.3 mph - N/A   Overcast
8:55 AM 46.4 °F 40.4 °F 42.8 °F 87% 30.24 in 6.2 mi SSW 13.8 mph - N/A   Overcast
9:25 AM 46.4 °F 40.1 °F 42.8 °F 87% 30.24 in 6.2 mi SSW 15.0 mph - N/A   Overcast
9:55 AM 46.4 °F 40.4 °F 44.6 °F 93% 30.24 in 6.2 mi SSW 13.8 mph - N/A   Overcast
10:00 AM 47 °F - 44 °F 84% 30.27 in 11 mi SSW 13.4 mph - -   Overcast
10:25 AM 46.4 °F 40.4 °F 42.8 °F 87% 30.27 in 6.2 mi SSW 13.8 mph - N/A   Overcast
10:55 AM 46.4 °F 39.8 °F 44.6 °F 93% 30.27 in 6.2 mi SSW 16.1 mph - N/A   Mostly Cloudy
11:25 AM 46.4 °F 39.5 °F 44.6 °F 93% 30.27 in 6.2 mi SSW 17.3 mph - N/A   Mostly Cloudy
11:55 AM 46.4 °F 40.7 °F 44.6 °F 93% 30.27 in 6.2 mi South 12.7 mph - N/A   Overcast
12:25 PM 48.2 °F - 44.6 °F 87% 30.27 in 6.2 mi SSW 13.8 mph - N/A   Overcast
12:55 PM 48.2 °F - 44.6 °F 87% 30.27 in 6.2 mi SSW 12.7 mph - N/A   Overcast
1:00 PM 48 °F - 45 °F 86% 30.27 in 7 mi SSW 13.4 mph - -   Partly Cloudy
1:25 PM 48.2 °F - 44.6 °F 87% 30.24 in 6.2 mi SSW 11.5 mph - N/A   Mostly Cloudy
1:55 PM 48.2 °F - 44.6 °F 87% 30.24 in 6.2 mi South 13.8 mph - N/A   Mostly Cloudy
2:25 PM 48.2 °F - 44.6 °F 87% 30.24 in 6.2 mi South 13.8 mph - N/A   Mostly Cloudy
2:55 PM 48.2 °F - 44.6 °F 87% 30.21 in 6.2 mi South 15.0 mph - N/A   Overcast
3:25 PM 46.4 °F 40.4 °F 44.6 °F 93% 30.21 in 6.2 mi South 13.8 mph - N/A   Mostly Cloudy
3:55 PM 46.4 °F 40.1 °F 42.8 °F 87% 30.21 in 6.2 mi South 15.0 mph - N/A   Mostly Cloudy
4:00 PM 47 °F - 43 °F 82% 30.23 in 11 mi South 15.7 mph - -   Overcast
4:25 PM 46.4 °F 39.5 °F 44.6 °F 93% 30.21 in 6.2 mi South 17.3 mph - N/A   Overcast
4:55 PM 46.4 °F 40.1 °F 44.6 °F 93% 30.21 in 6.2 mi South 15.0 mph - N/A   Overcast
5:25 PM 46.4 °F 39.8 °F 44.6 °F 93% 30.21 in 6.2 mi South 16.1 mph - N/A   Overcast
5:55 PM 46.4 °F 40.1 °F 42.8 °F 87% 30.21 in 6.2 mi South 15.0 mph 27.6 mph N/A   Overcast
6:25 PM 48.2 °F - 42.8 °F 82% 30.21 in 6.2 mi South 15.0 mph - N/A   Mostly Cloudy
6:55 PM 48.2 °F - 42.8 °F 82% 30.18 in 6.2 mi South 18.4 mph - N/A   Unknown
7:00 PM 47 °F - 42 °F 78% 30.21 in 19 mi South 15.7 mph - -   Partly Cloudy
7:25 PM 48.2 °F - 42.8 °F 82% 30.18 in 6.2 mi South 17.3 mph - N/A   Overcast
7:55 PM 48.2 °F - 41.0 °F 76% 30.18 in 6.2 mi South 17.3 mph - N/A   Overcast
8:25 PM 46.4 °F 39.8 °F 41.0 °F 81% 30.18 in 6.2 mi South 16.1 mph - N/A   Partly Cloudy
8:55 PM 46.4 °F 40.1 °F 41.0 °F 81% 30.18 in 6.2 mi South 15.0 mph - N/A   Mostly Cloudy
9:25 PM 46.4 °F 39.8 °F 41.0 °F 81% 30.18 in 6.2 mi South 16.1 mph - N/A   Overcast
9:55 PM 46.4 °F 39.0 °F 41.0 °F 81% 30.18 in 6.2 mi South 19.6 mph - N/A   Mostly Cloudy
10:00 PM 47 °F - 40 °F 69% 30.19 in 18 mi South 17.9 mph - -   Mostly Cloudy
10:25 PM 46.4 °F 39.5 °F 39.2 °F 76% 30.18 in 6.2 mi South 17.3 mph - N/A   Overcast
10:55 PM 46.4 °F 39.0 °F 41.0 °F 81% 30.18 in 6.2 mi South 19.6 mph - N/A   Overcast
11:25 PM 48.2 °F - 41.0 °F 76% 30.18 in 6.2 mi SSW 17.3 mph - N/A   Overcast
11:55 PM 46.4 °F 40.4 °F 41.0 °F 81% 30.15 in 6.2 mi South 13.8 mph - N/A   Overcast